Wind_Speed
23 23 26 25 26 28 29 29 30 31 34 39 30 22 17 17 21 16 13 15 17 12 10 11 11 10 7 5 10 6 6 7 11 10 8 8 9 21 17 19 13 14 9 20 14 3 6
34 31 29 26 26 26 27 29 30 31 30 37 33 22 17 19 20 15 14 14 16 13 11 11 11 8 7 5 4 5 7 10 10 10 11 9 6 11 7 9 11 15 15 18 11 6 4
36 35 35 34 29 29 28 28 29 30 31 33 36 22 19 19 18 13 14 13 16 13 11 10 8 7 9 15 6 6 7 12 11 11 10 8 14 6 8 7 10 10 8 14 10 7 4
37 39 37 36 35 32 30 31 29 29 31 30 35 22 18 18 15 14 12 11 11 10 7 6 5 6 7 6 7 8 12 13 12 11 7 7 9 11 6 2 6 8 6 10 3 6 4
29 32 39 41 41 36 33 31 31 27 30 33 28 24 17 17 15 12 10 7 7 4 5 4 5 4 7 4 7 9 13 13 10 8 5 5 3 5 10 6 5 6 0 6 5 9 5
30 31 32 31 40 39 39 33 31 26 31 31 26 23 15 15 13 10 3 3 2 4 4 3 4 5 3 6 7 9 9 4 5 4 2 1 3 1 2 2 3 8 7 7 10 6 3
32 34 35 34 31 35 43 39 33 25 32 29 27 22 12 14 10 10 6 5 3 2 7 5 3 8 10 9 13 6 4 2 3 2 2 2 2 4 4 3 8 10 8 5 6 7 1
33 34 35 38 38 30 36 44 36 29 30 30 29 23 12 13 8 9 10 6 4 1 4 8 7 11 10 7 7 6 1 3 3 3 3 1 1 6 3 5 7 10 10 5 7 9 6
37 37 38 39 39 41 33 37 35 29 26 37 28 20 10 12 7 9 12 8 5 2 2 3 5 5 2 3 3 2 3 1 1 2 4 2 3 7 4 5 9 11 12 11 5 6 5
40 40 41 42 44 46 41 37 36 32 27 34 31 16 8 9 7 13 12 8 6 2 4 3 2 1 3 3 3 3 2 4 3 6 4 2 7 9 5 3 13 7 12 15 16 8 2
38 37 37 39 41 42 53 36 42 29 26 34 33 12 9 15 6 14 10 11 7 2 3 3 4 2 3 2 4 1 4 3 4 3 2 2 6 6 6 6 2 3 7 9 10 5 6
36 37 37 39 41 42 47 41 38 30 34 36 28 13 12 20 16 12 14 12 7 5 4 4 3 2 1 4 2 1 2 3 3 2 4 4 7 2 2 4 4 8 19 11 6 4 1
38 37 37 39 40 45 47 37 34 34 30 40 23 14 17 18 16 15 16 13 4 4 3 2 1 1 1 2 2 4 1 1 2 4 2 4 3 4 2 4 7 7 4 3 3 1 2
37 38 38 40 38 42 50 37 25 31 30 36 20 18 23 18 16 18 20 4 4 4 5 2 2 2 2 1 1 3 2 2 5 4 3 3 2 3 1 3 4 3 2 4 4 2 2
39 38 40 40 41 41 52 47 23 22 35 29 25 26 24 18 18 22 8 3 6 6 4 4 1 2 4 2 1 3 2 2 2 2 3 2 4 3 3 2 3 2 2 2 6 2 3
39 38 40 40 43 45 48 43 39 18 35 34 35 27 22 19 20 17 3 4 3 5 3 3 3 4 2 2 1 2 2 1 1 2 2 3 5 6 4 1 3 4 5 3 2 3 3
38 38 38 39 42 43 47 42 10 30 34 36 32 11 20 20 20 6 3 4 3 5 3 4 4 2 2 3 1 1 1 2 3 3 2 2 4 3 3 4 1 4 2 4 4 2 3
39 38 38 37 41 39 40 34 19 24 38 36 10 4 24 22 5 4 3 4 6 5 2 1 2 1 4 3 2 1 2 1 5 3 3 0 4 5 2 2 2 1 1 3 4 2 2
36 35 36 37 41 34 36 24 4 31 45 25 8 9 18 21 3 3 2 4 3 4 4 3 2 3 1 2 3 2 2 5 5 3 2 2 2 3 6 5 3 1 1 2 4 3 1
35 34 34 35 37 35 36 21 10 40 35 14 6 4 6 8 3 2 4 4 4 7 4 3 3 2 0 4 4 3 3 6 5 5 8 4 4 4 5 4 2 2 3 3 4 3 3
33 34 32 33 32 34 34 24 29 42 32 1 3 3 8 6 6 4 1 5 7 5 2 7 2 2 4 2 3 1 3 3 6 7 4 4 4 3 5 3 2 2 2 5 3 4 4
32 33 31 31 30 27 31 24 23 35 33 11 3 4 7 9 10 7 3 5 5 4 4 3 5 3 4 5 3 6 3 3 1 5 3 4 1 3 4 5 5 3 3 3 2 1 3
33 31 31 29 34 27 27 16 26 36 31 9 5 8 11 12 5 5 4 6 7 8 2 3 7 5 4 3 3 6 9 7 3 2 2 3 4 3 2 5 5 4 1 1 3 5 1
32 30 27 27 32 28 29 21 26 35 39 14 8 6 5 4 4 5 6 4 7 3 6 4 8 5 5 18 18 16 20 15 10 7 2 4 3 2 2 3 1 3 2 2 8 3 4
29 27 24 27 27 27 22 7 19 39 43 8 6 2 3 3 4 2 7 6 12 11 5 5 5 8 15 9 5 4 4 4 5 6 7 4 4 3 3 2 4 3 4 4 4 4 3
28 25 21 26 22 19 15 14 29 48 33 8 5 3 2 9 1 3 4 10 5 3 3 4 9 11 3 3 3 3 3 2 1 2 4 5 6 4 1 3 5 3 2 1 2 4 7
24 18 17 21 13 8 6 17 33 41 30 6 4 6 4 10 4 4 4 4 7 5 4 3 3 3 4 2 2 2 1 4 3 5 3 2 3 3 2 2 6 4 3 2 4 4 10
23 15 15 12 11 1 11 16 22 38 32 17 1 4 4 8 10 5 6 5 7 6 5 7 5 2 3 3 2 2 2 3 2 3 5 5 4 2 2 0 6 2 3 5 3 8 8
19 12 12 8 10 4 10 14 21 24 36 25 6 1 7 9 12 16 15 12 9 7 10 8 3 3 4 4 1 2 2 1 3 2 2 2 5 4 6 4 1 1 2 5 6 6 3
Wind_Direction
312 315 306 309 307 309 309 311 311 311 309 303 285 293 299 298 304 306 298 300 304 300 271 297 294 293 297 262 263 301 315 332 343 319 275 295 266 246 220 190 198 207 204 186 185 82 345
296 306 301 308 298 300 305 309 311 311 307 304 282 291 301 298 303 302 293 294 293 296 254 272 295 283 276 265 249 284 296 315 323 307 276 291 259 310 276 196 183 198 233 203 172 95 10
291 291 296 301 306 298 299 302 307 310 308 306 282 285 311 313 301 299 302 282 287 289 253 262 284 278 267 258 278 278 297 302 307 300 268 261 255 319 322 200 174 149 216 204 195 107 8
290 292 294 291 292 301 300 297 302 307 309 310 275 278 310 309 302 296 304 303 287 283 246 250 271 274 259 301 275 280 289 291 280 292 265 269 263 285 256 300 100 145 2 171 359 120 330
335 314 289 289 294 295 295 298 293 307 308 310 267 277 311 305 301 286 296 293 288 244 215 245 253 256 269 310 282 290 304 303 245 283 266 280 258 229 259 154 111 135 170 146 97 160 10
336 334 336 313 285 300 291 292 298 301 301 308 268 277 312 300 299 276 278 237 204 197 179 214 218 291 258 310 289 284 309 296 212 247 339 294 289 194 343 101 138 174 215 95 102 128 258
338 333 332 335 325 306 289 286 291 282 307 298 266 276 304 299 286 268 164 150 158 187 211 225 240 255 294 307 312 323 291 214 203 217 257 101 270 168 98 35 349 125 99 77 91 133 72
336 333 332 330 333 319 302 295 291 293 318 278 278 273 292 290 261 245 172 172 183 196 276 243 259 269 281 276 327 353 137 199 188 219 99 269 101 103 57 12 341 130 131 66 100 136 90
333 334 333 330 325 329 313 304 305 279 318 261 281 264 282 270 225 212 171 177 169 183 257 269 267 267 232 277 286 294 203 143 306 127 198 203 149 139 96 33 307 183 148 154 121 139 68
330 329 327 323 320 321 320 298 301 271 276 258 264 254 249 230 195 181 158 164 160 178 65 288 280 211 193 347 270 281 180 180 191 207 211 209 164 111 93 2 176 138 165 157 149 132 226
319 315 317 316 317 318 318 305 302 272 292 256 242 231 219 199 190 174 152 156 151 176 43 267 281 285 189 271 317 7 183 221 165 187 246 51 147 110 71 242 267 96 83 120 155 136 132
314 314 312 312 313 315 315 306 299 267 298 246 226 197 203 190 173 174 149 145 135 46 266 334 264 235 129 333 44 313 242 221 142 189 97 70 78 42 123 351 53 108 82 59 55 42 104
317 315 313 310 312 316 314 302 292 263 288 228 209 181 191 180 175 170 150 133 49 121 333 269 236 279 120 18 73 210 280 167 149 109 120 53 18 340 259 91 10 101 117 74 49 31 102
315 315 317 313 313 315 315 318 302 256 269 212 179 170 169 167 171 164 146 74 96 214 207 258 254 328 38 342 23 357 57 70 17 78 89 125 145 329 276 105 141 103 100 131 130 165 141
316 317 317 318 319 317 314 324 295 280 205 179 156 158 162 166 169 155 126 99 200 206 188 161 55 72 336 320 309 20 44 65 11 91 102 97 79 217 44 94 107 243 337 112 107 11 78
317 319 320 322 321 320 318 325 304 198 181 156 155 149 164 166 162 150 88 229 175 178 142 108 187 175 160 256 359 30 21 33 353 105 181 153 84 35 336 109 29 156 163 66 4 130 104
321 320 321 323 322 325 325 337 221 203 167 157 144 123 161 166 150 137 179 221 143 155 139 140 194 189 189 187 171 69 337 340 6 28 80 107 75 317 74 6 45 28 78 57 103 56 139
320 321 321 322 323 327 332 358 178 193 163 156 146 113 161 159 118 172 196 185 142 127 165 107 137 203 178 176 109 78 111 260 2 5 68 223 98 73 153 268 238 275 301 125 117 218 55
318 319 321 323 323 329 329 318 243 183 162 151 100 93 158 167 156 200 193 133 127 118 174 161 184 235 54 149 84 133 62 16 34 73 126 155 63 78 355 360 2 351 329 97 95 71 106
317 319 321 321 325 327 326 332 225 171 163 136 130 133 150 183 234 155 148 153 127 156 148 174 147 109 8 33 12 145 86 23 20 39 44 74 68 128 159 196 149 180 159 93 98 81 169
320 317 316 319 324 324 328 330 186 178 172 60 213 178 171 168 206 192 218 159 123 149 199 175 133 156 125 106 48 6 95 61 29 7 36 75 91 72 55 54 127 183 199 164 124 173 138
320 316 316 317 318 317 325 347 191 188 179 247 264 153 149 161 149 162 224 202 127 121 141 182 143 132 144 142 195 172 108 62 349 8 55 14 135 92 19 10 42 89 61 110 78 138 83
316 317 316 318 317 322 320 306 193 197 187 217 279 142 129 150 123 137 202 167 158 129 58 100 142 101 79 138 108 94 101 76 109 124 90 64 120 77 301 350 353 5 318 297 115 39 348
316 318 319 316 318 322 323 269 233 205 186 175 230 186 111 146 135 183 167 128 142 152 135 54 106 102 137 119 100 79 69 73 58 22 80 109 81 69 180 20 45 253 323 195 120 79 67
317 317 317 314 321 326 351 277 204 178 186 174 204 243 121 103 122 121 134 106 96 80 69 76 48 114 137 116 70 60 358 35 6 27 17 54 109 86 120 173 270 157 199 174 176 216 205
317 315 316 317 322 323 329 184 181 175 187 180 123 93 90 121 331 103 89 137 126 101 37 66 103 129 123 79 84 139 172 154 210 62 48 62 80 111 137 128 223 252 159 90 122 276 165
314 314 310 320 319 332 334 184 175 175 176 184 79 57 83 99 58 100 90 132 121 100 93 111 123 89 46 70 91 140 191 173 156 164 179 66 24 135 153 196 283 231 177 118 129 237 164
311 305 307 307 343 277 195 193 195 190 186 203 309 39 68 99 63 102 121 125 128 131 131 157 96 1 55 72 120 173 141 220 112 183 177 157 146 199 94 113 277 125 120 174 132 121 161
306 297 301 306 12 110 177 187 187 187 201 212 213 340 102 99 112 98 97 99 120 126 131 142 117 132 148 97 89 111 134 77 141 223 56 200 183 186 180 218 308 235 255 125 130 147 177
Height
1537 1535 1531 1528 1525 1523 1521 1518 1515 1511 1508 1503 1500 1498 1497 1495 1493 1490 1488 1488 1486 1484 1483 1482 1481 1479 1480 1480 1476 1474 1474 1473 1472 1470 1469 1468 1467 1467 1465 1464 1465 1466 1467 1470 1472 1476 1474
1533 1530 1528 1525 1521 1518 1515 1513 1510 1507 1503 1499 1496 1494 1492 1491 1488 1486 1485 1483 1483 1481 1481 1480 1479 1478 1479 1479 1474 1473 1472 1471 1470 1468 1465 1464 1462 1458 1459 1455 1459 1458 1468 1466 1468 1473 1475
1528 1527 1524 1521 1517 1512 1510 1507 1505 1502 1500 1495 1491 1490 1487 1486 1486 1481 1481 1480 1480 1478 1478 1478 1477 1476 1477 1474 1473 1472 1471 1470 1468 1466 1464 1463 1463 1462 1460 1457 1457 1460 1471 1470 1469 1472 1471
1522 1520 1516 1513 1510 1508 1504 1502 1500 1497 1495 1491 1486 1485 1482 1481 1480 1480 1477 1476 1476 1475 1476 1476 1475 1475 1473 1471 1471 1470 1469 1468 1467 1465 1463 1462 1461 1461 1457 1452 1457 1463 1474 1459 1467 1470 1476
1518 1514 1509 1506 1503 1501 1499 1496 1495 1493 1489 1488 1482 1480 1478 1477 1476 1474 1474 1473 1474 1475 1475 1476 1475 1475 1471 1470 1469 1468 1467 1464 1464 1463 1462 1461 1460 1460 1456 1453 1457 1468 1473 1463 1472 1473 1483
1514 1511 1506 1500 1497 1493 1491 1489 1488 1488 1484 1482 1478 1476 1474 1473 1471 1470 1470 1471 1472 1475 1474 1475 1474 1477 1470 1469 1467 1465 1464 1463 1463 1462 1461 1461 1459 1457 1452 1451 1457 1462 1475 1463 1469 1479 1486
1511 1508 1502 1497 1492 1489 1484 1481 1482 1482 1480 1475 1474 1472 1469 1470 1468 1469 1466 1471 1476 1476 1474 1473 1471 1469 1467 1466 1465 1462 1462 1463 1463 1463 1461 1461 1457 1457 1454 1460 1462 1461 1471 1475 1474 1477 1483
1508 1503 1498 1492 1488 1485 1478 1474 1474 1475 1474 1468 1467 1467 1467 1466 1465 1466 1462 1467 1471 1473 1473 1469 1468 1467 1466 1466 1465 1463 1463 1464 1463 1461 1461 1461 1456 1458 1459 1460 1463 1461 1470 1476 1475 1478 1479
1502 1497 1492 1488 1484 1478 1474 1467 1466 1468 1469 1464 1461 1462 1463 1463 1462 1464 1461 1465 1468 1471 1472 1468 1467 1466 1466 1467 1464 1463 1464 1463 1461 1462 1462 1460 1459 1460 1463 1466 1468 1462 1469 1478 1478 1480 1478
1494 1491 1486 1482 1475 1471 1468 1463 1460 1459 1459 1459 1454 1456 1459 1461 1463 1462 1460 1463 1467 1471 1483 1470 1466 1465 1464 1464 1463 1461 1461 1463 1464 1463 1463 1458 1460 1460 1467 1472 1463 1463 1462 1465 1473 1478 1490
1496 1492 1488 1484 1476 1469 1460 1456 1452 1452 1452 1450 1450 1449 1455 1459 1459 1461 1459 1462 1467 1471 1505 1469 1464 1463 1463 1464 1464 1460 1460 1461 1461 1460 1460 1459 1459 1459 1465 1466 1456 1463 1457 1461 1470 1480 1483
1492 1487 1482 1477 1471 1463 1454 1448 1444 1443 1444 1442 1442 1443 1450 1455 1456 1460 1457 1462 1468 1485 1501 1473 1463 1462 1464 1462 1462 1461 1459 1461 1460 1459 1458 1459 1463 1464 1464 1460 1457 1460 1468 1477 1479 1484 1485
1486 1480 1474 1469 1463 1454 1447 1440 1437 1435 1438 1434 1436 1438 1445 1451 1453 1457 1456 1463 1482 1493 1474 1468 1462 1460 1460 1461 1460 1460 1458 1458 1459 1462 1462 1464 1468 1468 1466 1465 1463 1461 1471 1482 1489 1489 1490
1479 1473 1467 1460 1454 1446 1436 1430 1425 1426 1428 1427 1430 1436 1441 1448 1451 1454 1457 1467 1490 1471 1472 1460 1461 1459 1460 1460 1459 1460 1459 1459 1458 1458 1465 1463 1473 1471 1467 1466 1470 1469 1473 1482 1487 1492 1496
1473 1466 1460 1453 1445 1440 1427 1417 1416 1413 1414 1420 1427 1434 1441 1445 1450 1452 1457 1478 1470 1468 1460 1460 1461 1462 1461 1458 1460 1459 1460 1460 1459 1459 1466 1465 1466 1466 1465 1467 1468 1478 1481 1474 1492 1498 1495
1465 1460 1454 1446 1439 1431 1422 1411 1405 1406 1407 1417 1424 1431 1439 1443 1448 1452 1459 1460 1456 1456 1455 1458 1462 1461 1462 1459 1461 1461 1460 1457 1458 1458 1457 1463 1465 1470 1470 1468 1471 1469 1473 1482 1490 1495 1491
1458 1454 1448 1442 1433 1426 1414 1402 1394 1403 1410 1417 1426 1431 1439 1444 1446 1454 1457 1457 1453 1453 1454 1459 1460 1459 1459 1459 1460 1462 1462 1459 1457 1459 1458 1460 1466 1476 1475 1477 1478 1475 1478 1482 1486 1490 1496
1453 1448 1441 1436 1429 1421 1412 1404 1398 1399 1411 1421 1423 1430 1437 1442 1447 1451 1452 1448 1451 1452 1456 1458 1459 1459 1459 1458 1460 1461 1461 1462 1459 1459 1463 1464 1474 1480 1481 1477 1478 1478 1476 1481 1495 1495 1508
1448 1442 1437 1429 1424 1419 1413 1410 1408 1399 1409 1417 1422 1430 1438 1440 1445 1446 1442 1445 1448 1452 1456 1458 1458 1458 1458 1458 1461 1460 1459 1459 1458 1460 1463 1462 1480 1502 1493 1485 1478 1478 1477 1478 1482 1492 1501
1442 1437 1433 1426 1421 1416 1410 1405 1406 1413 1413 1416 1422 1432 1439 1439 1441 1441 1440 1445 1448 1450 1454 1456 1457 1457 1458 1458 1460 1459 1461 1461 1460 1460 1460 1460 1477 1480 1494 1485 1482 1480 1477 1480 1485 1504 1495
1437 1432 1427 1422 1419 1414 1405 1401 1403 1412 1416 1419 1423 1425 1424 1431 1439 1439 1441 1442 1445 1450 1452 1455 1457 1457 1459 1462 1462 1463 1461 1463 1464 1463 1462 1465 1482 1484 1481 1478 1478 1478 1478 1479 1485 1481 1488
1432 1426 1422 1417 1416 1413 1406 1396 1394 1407 1416 1419 1421 1420 1422 1426 1433 1440 1442 1442 1444 1449 1451 1454 1455 1456 1457 1463 1464 1466 1462 1466 1466 1465 1467 1470 1490 1483 1494 1484 1481 1480 1479 1479 1481 1482 1482
1425 1422 1415 1410 1405 1400 1402 1400 1403 1411 1415 1417 1420 1418 1419 1431 1436 1440 1440 1442 1444 1447 1451 1452 1454 1457 1461 1463 1463 1463 1464 1466 1468 1468 1471 1475 1484 1493 1496 1492 1485 1491 1484 1481 1482 1487 1484
1418 1416 1413 1408 1404 1399 1393 1393 1395 1405 1415 1416 1421 1420 1419 1432 1434 1437 1436 1438 1444 1447 1450 1453 1454 1457 1463 1463 1465 1467 1469 1471 1471 1472 1472 1478 1486 1496 1507 1497 1506 1487 1484 1482 1487 1490 1489
1415 1411 1409 1405 1400 1397 1388 1386 1389 1401 1411 1418 1420 1420 1419 1431 1432 1436 1436 1440 1446 1449 1451 1454 1457 1458 1462 1464 1471 1477 1481 1476 1478 1478 1476 1476 1484 1497 1504 1509 1493 1486 1485 1484 1482 1489 1489
1410 1407 1403 1398 1395 1393 1394 1394 1395 1403 1413 1420 1420 1420 1420 1424 1439 1437 1438 1440 1449 1454 1457 1459 1460 1461 1464 1468 1473 1479 1485 1481 1484 1480 1479 1480 1482 1491 1498 1499 1493 1481 1482 1481 1482 1489 1487
1407 1406 1404 1401 1399 1394 1393 1396 1401 1408 1416 1420 1421 1421 1422 1427 1437 1438 1440 1444 1447 1452 1459 1461 1462 1464 1465 1472 1476 1478 1483 1480 1485 1486 1484 1485 1490 1494 1496 1500 1487 1479 1480 1481 1488 1489 1486
1404 1403 1401 1398 1396 1394 1395 1399 1405 1411 1416 1421 1424 1424 1425 1430 1439 1441 1443 1445 1448 1450 1457 1462 1465 1466 1469 1473 1475 1479 1481 1481 1482 1482 1483 1485 1494 1493 1496 1495 1495 1480 1482 1485 1485 1486 1487
1397 1398 1399 1398 1392 1393 1395 1398 1405 1411 1418 1423 1427 1428 1428 1430 1444 1445 1446 1447 1449 1452 1455 1460 1463 1463 1465 1472 1476 1479 1480 1484 1484 1485 1481 1485 1483 1485 1487 1486 1482 1481 1481 1482 1482 1482 1485